Regional Weather Roundup
Issued by NWS

Home | Current Version | Previous Version | Graphics & Text | Print | Product List | Glossary On
Versions: 1 2 3 4 5 6 7 8 9 10 11 12 13 14 15 16 17 18 19 20 21 22 23 24 25 26 27 28 29 30 31 32 33 34 35 36 37 38 39 40 41 42 43 44 45 46 47 48 49 50
000
ASUS43 KMKX 282020
RWRWI

WISCONSIN REGIONAL WEATHER ROUNDUP
NATIONAL WEATHER SERVICE MILWAUKEE/SULLIVAN WI
200 PM CST SAT FEB 28 2015

NOTE: "FAIR" INDICATES FEW OR NO CLOUDS BELOW 12,000 FEET WITH NO
SIGNIFICANT WEATHER AND/OR OBSTRUCTIONS TO VISIBILITY.

WIZ001-002-006>008-014>016-023>028-282100-
NORTHWEST WISCONSIN

CITY           SKY/WX    TMP DP  RH WIND       PRES   REMARKS
SUPERIOR ARPT  SUNNY     23   3  42 SW17      30.38F WCI   9
ASHLAND        SUNNY     23   0  36 SW16G22   30.39F WCI  10
HAYWARD        SUNNY     17   1  49 S15       30.40F WCI   2
SIREN          SUNNY     20   3  48 S10G22    30.40F WCI   9
CUMBERLAND     SUNNY     18   3  53 S13       30.41F WCI   4
RICE LAKE      SUNNY     17   1  48 S14       30.45F WCI   3
CHETEK         SUNNY     16   2  54 SE10G16   30.45F WCI   4
LADYSMITH      SUNNY     18   2  51 S9G16     30.46F WCI   6
EAU CLAIRE     SUNNY     16   0  49 S10       30.47F WCI   4
MENOMONIE      SUNNY     18   2  50 S12       30.47F WCI   5
NEW RICHMOND   SUNNY     19   4  53 S15G21    30.43F WCI   5
OSCEOLA        SUNNY     21   4  48 S20       30.45F WCI   5
$$

WIZ003>005-009-010-017-018-282100-
NORTH CENTRAL WISCONSIN

CITY           SKY/WX    TMP DP  RH WIND       PRES   REMARKS
MANITOWISH WTR SUNNY     19  -3  38 SW14G21   30.37F WCI   5
ARBOR VITAE    SUNNY     22   1  40 SW12      30.37F WCI  10
WOODRUFF       SUNNY     22   1  40 SW12      30.37F WCI  10
RHINELANDER    SUNNY     18  -2  41 SW13G18   30.41F WCI   5
EAGLE RIVER    SUNNY     20  -6  31 S9        30.37F WCI   9
LAND O LAKES   SUNNY     23  -5  30 SW9       30.37F WCI  13
PHILLIPS       SUNNY     17  -2  43 SW15      30.39F WCI   3
TOMAHAWK       SUNNY     19  -2  39 CALM      30.43S
MEDFORD        SUNNY     13  -1  54 SW10      30.44F WCI   0
MERRILL        SUNNY     17  -1  44 SW12      30.46F WCI   4
$$

WIZ029-030-035-036-043>047-282100-
CENTRAL WISCONSIN

CITY           SKY/WX    TMP DP  RH WIND       PRES   REMARKS
WAUSAU         SUNNY     16  -1  47 S10       30.46F WCI   4
MOSINEE        SUNNY     18  -2  41 SW14      30.49F WCI   4
MARSHFIELD     SUNNY     18  -3  39 S14       30.47F WCI   4
STEVENS POINT  SUNNY     17  -4  40 S12       30.50F WCI   4
WAUPACA        SUNNY     24  -4  29 S9        30.54F WCI  14
WAUTOMA        SUNNY     20  -2  38 SW13      30.54F WCI   7
WISC RAPIDS    SUNNY     17  -6  35 SW14      30.52F WCI   3
CAMP DOUGLAS   MOSUNNY   18  -2  41 S10       30.52F WCI   6
$$

WIZ011>013-019>022-031-037>040-048>050-282100-
NORTHEAST WISCONSIN

CITY           SKY/WX    TMP DP  RH WIND       PRES   REMARKS
ANTIGO         SUNNY     17   0  49 SW9       30.44F WCI   5
SHAWANO        FAIR      22  -1  36 SW10      30.54F WCI  11
OCONTO         SUNNY     19   3  51 S12G17    30.55F WCI   6
STURGEON BAY   SUNNY     19   1  45 SW12      30.56F WCI   7
GREEN BAY      SUNNY     19   5  54 S13       30.56F WCI   6
MANITOWOC      SUNNY     22   2  42 S13       30.58F WCI  10
APPLETON       MOSUNNY   18   0  45 S13       30.55F WCI   4
CLINTONVILLE   SUNNY     21   1  42 SW6       30.54F WCI  14
OSHKOSH        SUNNY     17  -2  43 SW10      30.56F WCI   5
$$

WIZ032>034-041-042-053>061-282100-
SOUTHWEST WISCONSIN

CITY           SKY/WX    TMP DP  RH WIND       PRES   REMARKS
LA CROSSE      SUNNY     16   1  51 S10       30.55F WCI   4
SPARTA         SUNNY     18  -1  43 S9        30.54F WCI   7
VIROQUA        SUNNY     16  -1  47 S10       30.49F WCI   3
BOSCOBEL       SUNNY     17  -4  39 S9        30.57F WCI   6
PRAIRIE DU CHI SUNNY     17  -5  37 S8        30.56F WCI   7
PLATTEVILLE    SUNNY     14   1  55 SE5       30.54F WCI   7
$$

WIZ056-057-062-063-064-067-068-282100-
SOUTH CENTRAL WISCONSIN

CITY           SKY/WX    TMP DP  RH WIND       PRES   REMARKS
REEDSBURG      SUNNY     17  -1  46 S10       30.54F WCI   4
BARABOO/DELLS  SUNNY     17  -3  41 S7        30.53F WCI   8
LONE ROCK      SUNNY     16  -3  43 S8        30.57F WCI   5
MINERAL POINT  SUNNY     16   1  53 S6        30.53F WCI   7
MADISON        MOSUNNY   14   0  53 S13       30.56F WCI   0
MIDDLETON      SUNNY     19  -1  42 S8        30.56F WCI   8
WATERTOWN      SUNNY     17   1  50 SW7       30.57F WCI   7
MONROE         SUNNY     16   5  62 S7        30.55F WCI   6
JANESVILLE     SUNNY     18   1  49 SW12      30.58F WCI   5
$$

WIZ051-052-058>065-066-070>072-282100-
SOUTHEAST WISCONSIN

CITY           SKY/WX    TMP DP  RH WIND       PRES   REMARKS
MILWAUKEE      MOSUNNY   16  -1  47 S7        30.60F WCI   6
WAUKESHA       SUNNY     16  -2  45 SW6       30.58F WCI   7
MILWAUKEE/TIMM SUNNY     19  -6  32 S6        30.59F WCI  11
RACINE         SUNNY     18   0  45 VRB3      30.62F
BURLINGTON     SUNNY     17  -1  46 SW8       30.59F WCI   7
KENOSHA        SUNNY     19   0  43 CALM      30.60F
FOND DU LAC    SUNNY     19  -1  41 S14       30.56F WCI   6
SHEBOYGAN      SUNNY     19   0  43 SW9       30.58F WCI   8
WEST BEND      FAIR      21  -4  33 S7        30.57F WCI  13
JUNEAU         SUNNY     16  -2  45 S10       30.57F WCI   4
$$

LSZ147-162-282100-
LAKE SUPERIOR

STATION/POSITION TIME  TEMP    WIND        PRES    WAVE
                       AIR SEA DIR/SP/G            HT/PER
                 (UTC) (F)     (DEG/KT/KT) (MB)    (FT/S)
DEVILS ISLAND    2000   20     240/  5/  7 1030.4F
PORT WING        1900   21     210/ 10/ 14 1029.8
SAXON HARBOR     1900   22     190/ 10/ 20 1030.1
$$

LMZ867-665-643>646-282100-
LAKE MICHIGAN

STATION/POSITION TIME  TEMP    WIND        PRES    WAVE
                       AIR SEA DIR/SP/G            HT/PER
                 (UTC) (F)     (DEG/KT/KT) (MB)    (FT/S)
NORTHPORT PIER   1900   21     180/  7/ 15 1034.9F
SISTER BAY       1913   30     260/ 10/ 12   N/A
KEWAUNEE LAKESHO 1900   18     210/  5/ 12 1035.2F
SHEBOYGAN LAKESH 2000   17     170/ 15/ 17 1037.3F
PORT WASHINGTON  1900   21     170/  9/ 13 1037.3F
MILWAUKEE LAKESH 2000   17     190/  9/ 11   N/A
KENOSHA   LAKESH 2000   19     160/ 10/ 12 1036.2F
$$

TC  - TEMPERATURE IN CELSIUS
VSB - VISIBILITY IN STATUTE MILES
WCI - WIND CHILL INDEX
HX  - HEAT INDEX




USA.gov is the U.S. government's official web portal to all federal, state and local government web resources and services.